Back to catalog

FENGYUN 1C DEB

AliveSSO
NORAD 30321·DEBRIS·🇨🇳 China

Launched May 10, 1999 from Taiyuan Satellite Launch Center

Loading…

Next Passes (next 24 hours)

TLE

FreshSource: Space-Track

Epoch: Sep 13, 2026, 22:09 UTC

1 30321U 99025AAJ 26256.92349803  .00000291  00000-0  16341-3 0  9993
2 30321  98.6679 253.7666 0060744 166.2696 256.5939 14.16945602 14415

Track FENGYUN 1C DEB in real time with AllMySat

Download on the App Store